Preview of NWS' New Version of Forecast
This preview is not operational and should not be used for support decisions.

Regional Weather Roundup (RWR)

Issued by National Weather Service (NWS)

                            
000
ASUS42 KTBW 211218
RWRFL 
FLORIDA REGIONAL WEATHER ROUNDUP
NATIONAL WEATHER SERVICE TAMPA BAY RUSKIN FL
800 AM EDT SUN JUL 21 2019

NOTE: "FAIR" INDICATES FEW OR NO CLOUDS BELOW 12,000 FEET WITH NO
SIGNIFICANT WEATHER AND/OR OBSTRUCTIONS TO VISIBILITY.

FLZ001>010-012>015-112-114-115-211300-
PANHANDLE FLORIDA
  
CITY           SKY/WX    TMP DP  RH WIND       PRES   REMARKS
PENSACOLA      CLOUDY    80  77  90 NE3       30.05R                  
PENSACOLA NAS  CLOUDY    78  76  93 CALM      30.05R                  
MILTON NAS     CLOUDY    74  73  97 CALM        N/A                   
CRESTVIEW      PTSUNNY   73  70  90 CALM      30.09R                  
DUKE FIELD     FAIR      73  73 100 CALM      30.06R                  
VALPARAISO     FAIR      75  73  91 NE5       30.05R                  
MARY ESTHER    MOSUNNY   76  73  88 CALM      30.05R                  
TRI COUNTY     FAIR      73  72  96 CALM      30.09R                  
PANAMA CITY    FAIR      76  72  87 VRB5      30.06S                  
TYNDALL AFB    PTSUNNY   78  73  86 E6        30.05S                  
APALACHICOLA   FAIR      74  72  93 N6        30.06R                  

STATION/POSITION SKY/WX   TEMP    WIND        PRES    WAVE   SWELL
                          AIR SEA DIR/SP/G            HT/PER HT/PER
                          (F)     (DEG/KT/KT) (MB)    (FT/S) (FT/S)
30.1N   87.6W              83 86   CALM  /  2 1017.4R   1/ 4
29.2N   88.2W              82     330/  6/ 16 1017.0
28.8N   86.0W                 86  110/ 10/ 12 1016.9F   1/ 4
PANAMA CITY BEAC           78 85   40/  4/  6 1018.3R
TOWER C                    82     160/  2/  2 1018.1R
28.5N   84.5W                     120/ 10/ 12 1018.2

$$
FLZ011-016>038-118-127-128-134-139-239-211300-
NORTH FLORIDA
  
CITY           SKY/WX    TMP DP  RH WIND       PRES   REMARKS
MARIANNA       FAIR      74  74 100 CALM      30.07R                  
TALLAHASSEE    FAIR      75  74  96 CALM      30.07R                  
PERRY          FAIR      75  74  97 CALM      30.09R                  
LIVE OAK       SUNNY     73  73 100 CALM      30.09R                  
CROSS CITY     FAIR      75  73  95 CALM      30.07S                  
LAKE CITY      FAIR      73  70  88 CALM      30.09R                  
GAINESVILLE    FAIR      74  72  93 CALM      30.10R                  
WILLISTON      FAIR      73  72  96 CALM      30.08R                  
PALATKA        FAIR      75  72  88 CALM      30.09R                  
MAYPORT NAS    FAIR      78  73  84 SW6       30.08R                  
JACKSONVILLE   FAIR      76  73  91 CALM      30.08R                  
JAX NAS        FAIR      80  70  71 SW5       30.08                   
JAX CECIL      SUNNY     75  73  94 CALM      30.08R                  
FERNANDINA BEA FAIR      78  76  93 W5        30.08R                  
ST AUGUSTINE   FAIR      78  72  81 S5        30.09R                  
PALM COAST     SUNNY     75  73  94 CALM      30.09R                  

STATION/POSITION SKY/WX   TEMP    WIND        PRES    WAVE   SWELL
                          AIR SEA DIR/SP/G            HT/PER HT/PER
                          (F)     (DEG/KT/KT) (MB)    (FT/S) (FT/S)
SHELL POINT      NOT AVBL
KEATON BEACH               77      70/  5/  7 1018.6R
CEDAR KEY                  81     140/ 10/ 11 1018.1F
FERNANDINA                 80 86  180/  3/  5 1019.0R
30.7N   81.3W                 82                N/A     2/ 8
MAYPORT                    78 84  220/  4/  5 1018.7R
31.4N   80.9W              82 83  220/  6/  8 1018.1R   2/ 8   2/ 8
ST AUGUSTINE               79 76  180/  4/  5 1018.8R

$$
FLZ040-043>046-052-053-057-058-063-144-211300-
INTERIOR CENTRAL FLORIDA
  
CITY           SKY/WX    TMP DP  RH WIND       PRES   REMARKS
OCALA          FAIR      75  73  93 CALM      30.09R                  
LEESBURG       FAIR      80  76  87 E5        30.09R                  
SANFORD        FAIR      79  76  90 CALM      30.08R                  
ORLANDO EXEC   FAIR      80  76  87 NE5       30.09R                  
ORLANDO INTL   FAIR      79  76  90 E6        30.09R                  
KISSIMMEE      FAIR      80  76  87 SE3       30.09R                  
WINTER HAVEN   FAIR      79  76  90 E5        30.09R                  
LAKELAND       SUNNY     77  75  94 CALM      30.08R                  
BARTOW         SUNNY     77  77 100 E5        30.07R                  
SEBRING        FAIR      76  75  95 NE3       30.08R                  

$$
FLZ041-047-054-059-064-141-147-211300-
EAST CENTRAL FLORIDA
  
CITY           SKY/WX    TMP DP  RH WIND       PRES   REMARKS
ORMOND BEACH   SUNNY     77  77 100 CALM      30.09R FOG              
DAYTONA BEACH  PTSUNNY   78  78 100 CALM      30.09R                  
DELAND         FAIR      75  73  94 CALM      30.09R                  
NEW SMYRNA BEA MOSUNNY   79  75  89 CALM      30.09R                  
JFK SPACE CTR  SUNNY     79  69  71 CALM      30.08R                  
TITUSVILLE     SUNNY     77  73  88 CALM      30.09R                  
CAPE CANAVERAL SUNNY     80  58  45 CALM      30.07R                  
PATRICK AFB    FAIR      82  81  96 CALM      30.07R HX  96           
MELBOURNE      FAIR      81  78  91 CALM      30.07R                  
VERO BEACH     FAIR      80  76  87 NE3       30.07R                  
FT PIERCE      FAIR      80  75  84 CALM      30.07R                  
STUART         MOSUNNY   81  75  83 CALM      30.07S                  

STATION/POSITION SKY/WX   TEMP    WIND        PRES    WAVE   SWELL
                          AIR SEA DIR/SP/G            HT/PER HT/PER
                          (F)     (DEG/KT/KT) (MB)    (FT/S) (FT/S)
28.5N   80.2W              83 83  170/  4/  4 1018.4R   2/ 8   2/ 8
28.9N   78.5W              85 86  130/ 10/ 12   N/A     2/ 8   2/ 8
TRIDENT PIER               80 84   CALM  /  1 1019.6R
28.4N   80.5W                 82                N/A     1/ 6
27.5N   80.2W                 83                N/A     1/ 8

$$
FLZ050-056-061-142-242-148-248-149-249-151-251-155-255-
160-260-211300-
WEST CENTRAL FLORIDA
  
CITY           SKY/WX    TMP DP  RH WIND       PRES   REMARKS
CRYSTAL RIVER  FAIR      73  72  94 CALM      30.08R                  
INVERNESS      FAIR      75  75 100 CALM      30.09R                  
BROOKSVILLE    FAIR      78  75  90 CALM      30.08R                  
CLEARWATER AIR FAIR      79  73  83 E3        30.06R                  
ST PETE CLEARW FAIR      78  75  90 E7        30.05S                  
TAMPA INTL     FAIR      78  73  84 VRB3      30.07R                  
TAMPA EXEC     FAIR      75  73  94 CALM      30.07S                  
PLANT CITY     FAIR     N/A N/A N/A MISG      30.09S                  
MACDILL AFB    FAIR      78  75  90 E6        30.06S                  
PETER O KNIGHT CLOUDY   N/A N/A N/A E3        30.06S                  
ST PETERSBURG  FAIR      80  75  84 SE8       30.04S                  
SARASOTA       FAIR      77  74  90 E5        30.04R                  
VENICE         FAIR      77  75  94 E7        30.06R                  

STATION/POSITION SKY/WX   TEMP    WIND        PRES    WAVE   SWELL
                          AIR SEA DIR/SP/G            HT/PER HT/PER
                          (F)     (DEG/KT/KT) (MB)    (FT/S) (FT/S)
27.3N   84.2W                 86                N/A     2/ 4
CLEARWATER BEACH           78 88  100/  6/  8 1017.8R
MIDDLE TAMPA BAY           78     100/  8/ 10 1018.0
VENICE                     76 86   60/  7/  9 1017.6R

$$
FLZ066-069-070-075>078-162-262-165-265-211300-
SOUTHWEST FLORIDA AND KEYS
  
CITY           SKY/WX    TMP DP  RH WIND       PRES   REMARKS
PUNTA GORDA    FAIR      76  75  97 E5        30.07R                  
FT MYERS       FAIR      76  73  91 E6        30.04S                  
SOUTHWEST INTL FAIR      77  74  90 E7        30.05R                  
NAPLES         MOSUNNY   32  32 100 E5        30.05R WCI  27          
MARCO ISLAND   FAIR      77  74  90 MISG      30.06R                  
IMMOKALEE      FAIR      77  75  94 CALM      30.04R                  
MARATHON       FAIR      85  71  63 SE7       30.03R                  
KEY WEST NAS   FAIR      87  74  64 SE8       30.02S THUNDER HX  95   
KEY WEST INTL  LGT RAIN  82  75  79 E8        30.03S                  

STATION/POSITION SKY/WX   TEMP    WIND        PRES    WAVE   SWELL
                          AIR SEA DIR/SP/G            HT/PER HT/PER
                          (F)     (DEG/KT/KT) (MB)    (FT/S) (FT/S)
NAPLES                     77 85              1017.4R
26.0N   85.6W              85 85  110/  8/ 12 1016.6R   2/ 8   2/ 8
DRY TORTUGAS               84     150/ 10/ 11 1015.9F
SAND KEY                   84     120/ 11/ 13 1015.5R
SOMBRERO KEY               84     110/ 10/ 12 1017.4
LONG KEY                   85                 1016.5

$$
FLZ067-068-071>074-168-172>174-211300-
SOUTHEAST FLORIDA 
  
CITY           SKY/WX    TMP DP  RH WIND       PRES   REMARKS
W PALM BEACH   FAIR      82  76  81 E7        30.07R                  
BOCA RATON     SUNNY     82  77  83 CALM      30.06R                  
FT LAUDER-EXEC FAIR      78  76  93 CALM      30.06R                  
FT LAUDERDALE  FAIR      79  75  87 CALM      30.05R                  
POMPANO BEACH  FAIR      80  75  84 CALM      30.06R                  
PEMBROKE PINES FAIR      80  74  81 CALM      30.07R                  
OPA LOCKA      FAIR      81  77  88 CALM      30.06R                  
MIAMI          PTSUNNY   82  74  76 CALM      30.06R                  
WEST KENDALL   FAIR      82  76  81 CALM      30.05R                  
HOMESTEAD      PTSUNNY   78  75  89 N3        30.04R                  

STATION/POSITION SKY/WX   TEMP    WIND        PRES    WAVE   SWELL
                          AIR SEA DIR/SP/G            HT/PER HT/PER
                          (F)     (DEG/KT/KT) (MB)    (FT/S) (FT/S)
VIRGINIA KEY               83 88  130/  2/  3 1017.1R
LAKE WORTH                 82 84  130/  4/  5 1019.0R
FOWEY ROCKS                82 85   90/  2/  3 1017.8R
SETTLEMENT POINT           84     120/  8/ 10 1018